Location: Camaret
(48.2753°N, 4.5961°W)
Time: 04:28:27
(UTC+00:00)

Cosmos 1408 - Pass Details

Date: 29 October 2020
Orbit: 470 x 492 km, 82.6° (Epoch: 01 December)

Event Time Altitude Azimuth Distance (km) Brightness Sun altitude
Rises 18:11:44 0° 357° (N) 2,559 6.2 -11.8°
Reaches altitude 10° 18:13:56 10° 5° (N) 1,677 5.2 -12.2°
Maximum altitude 18:17:23 38° 75° (ENE) 757 3.0 -12.8°
Drops below altitude 10° 18:20:51 10° 146° (SE) 1,676 5.0 -13.3°
Sets 18:23:03 0° 154° (SSE) 2,555 6.0 -13.7°
